| time (UTC) | temp F | wind direction | speed MPH | gust MPH | rain 1hr in | rain 24hr in | rain mn in | humidity % | barometer mb |
| 20260503054519 | 40 | 181 | 0.0 | 0.0 | 0.01 | 0.02 | 0.01 | 83 | 1008.6 |
| 20260503053019 | 40 | 181 | 0.0 | 0.0 | 0.00 | 0.01 | 0.00 | 83 | 1008.8 |
| 20260503051525 | 40 | 181 | 0.0 | 0.0 | 0.00 | 0.01 | 0.00 | 83 | 1008.8 |
| 20260503050021 | 40 | 181 | 0.0 | 0.0 | 0.00 | 0.01 | 0.00 | 83 | 1009.1 |
| 20260503044520 | 40 | 181 | 0.0 | 0.0 | 0.00 | 0.01 | 0.00 | 83 | 1009.2 |
| 20260503043012 | 40 | 181 | 0.0 | 0.0 | 0.00 | 0.01 | 0.00 | 82 | 1009.4 |
| 20260503041511 | 40 | 181 | 0.0 | 0.0 | 0.00 | 0.01 | 0.00 | 82 | 1009.6 |
| 20260503040009 | 40 | 181 | 0.0 | 0.0 | 0.00 | 0.01 | 0.01 | 82 | 1009.7 |
| 20260503034508 | 40 | 181 | 0.0 | 0.0 | 0.00 | 0.01 | 0.01 | 82 | 1009.8 |
| 20260503033007 | 40 | 181 | 0.0 | 0.0 | 0.00 | 0.01 | 0.01 | 82 | 1009.9 |
| 20260503031507 | 40 | 181 | 0.0 | 0.0 | 0.00 | 0.01 | 0.01 | 82 | 1009.9 |
| 20260503030006 | 41 | 181 | 0.0 | 0.0 | 0.00 | 0.01 | 0.01 | 81 | 1009.9 |
| 20260503024506 | 41 | 181 | 0.0 | 0.0 | 0.00 | 0.01 | 0.01 | 82 | 1010.1 |
| 20260503023006 | 41 | 181 | 0.0 | 0.0 | 0.00 | 0.01 | 0.01 | 81 | 1010.1 |
| 20260503021505 | 41 | 181 | 0.0 | 0.0 | 0.00 | 0.01 | 0.01 | 81 | 1010.2 |
| 20260503020005 | 41 | 181 | 0.0 | 0.0 | 0.00 | 0.01 | 0.01 | 82 | 1010.3 |
| 20260503014504 | 41 | 181 | 0.0 | 0.0 | 0.00 | 0.01 | 0.01 | 82 | 1010.5 |
| 20260503013004 | 41 | 183 | 0.0 | 0.0 | 0.00 | 0.01 | 0.01 | 82 | 1010.5 |
| 20260503011503 | 41 | 183 | 0.0 | 0.0 | 0.00 | 0.01 | 0.01 | 82 | 1010.6 |
| 20260503010003 | 41 | 183 | 0.0 | 0.0 | 0.00 | 0.01 | 0.01 | 81 | 1010.7 |
| 20260503004503 | 41 | 183 | 0.0 | 0.0 | 0.00 | 0.01 | 0.01 | 81 | 1010.8 |
| 20260503003001 | 41 | 183 | 0.0 | 0.0 | 0.00 | 0.01 | 0.01 | 81 | 1010.7 |
| 20260503001501 | 42 | 183 | 0.0 | 0.0 | 0.00 | 0.01 | 0.01 | 81 | 1010.7 |
| 20260503000001 | 42 | 177 | 0.0 | 5.0 | 0.01 | 0.01 | 0.01 | 81 | 1010.6 |
| 20260502234603 | 42 | 184 | 1.0 | 4.0 | 0.01 | 0.01 | 0.01 | 81 | 1010.6 |
| 20260502233102 | 42 | 180 | 0.0 | 4.0 | 0.01 | 0.01 | 0.01 | 80 | 1010.6 |
| 20260502231559 | 42 | 188 | 0.0 | 4.0 | 0.01 | 0.01 | 0.01 | 79 | 1010.6 |
| 20260502230059 | 43 | 180 | 0.0 | 7.0 | 0.00 | 0.00 | 0.00 | 78 | 1010.6 |
| 20260502224605 | 44 | 181 | 0.0 | 6.0 | 0.00 | 0.00 | 0.00 | 77 | 1010.6 |
| 20260502223058 | 44 | 185 | 1.0 | 7.0 | 0.00 | 0.00 | 0.00 | 74 | 1010.6 |
| 20260502221557 | 45 | 167 | 0.0 | 6.0 | 0.00 | 0.00 | 0.00 | 72 | 1010.6 |
| 20260502220057 | 45 | 190 | 0.0 | 7.0 | 0.00 | 0.00 | 0.00 | 73 | 1010.6 |
| 20260502214619 | 46 | 183 | 1.0 | 7.0 | 0.00 | 0.00 | 0.00 | 68 | 1010.6 |
| 20260502213059 | 46 | 185 | 0.0 | 8.0 | 0.00 | 0.00 | 0.00 | 67 | 1010.6 |
| 20260502211604 | 47 | 164 | 4.0 | 10.0 | 0.00 | 0.00 | 0.00 | 63 | 1010.5 |
| 20260502210056 | 47 | 194 | 2.0 | 11.0 | 0.00 | 0.00 | 0.00 | 61 | 1010.4 |
| 20260502204553 | 48 | 184 | 5.0 | 13.0 | 0.00 | 0.00 | 0.00 | 57 | 1010.3 |
| 20260502203106 | 48 | 175 | 3.0 | 12.0 | 0.00 | 0.00 | 0.00 | 56 | 1010.3 |
| 20260502201605 | 49 | 175 | 2.0 | 9.0 | 0.00 | 0.00 | 0.00 | 56 | 1010.1 |
| 20260502200052 | 49 | 171 | 3.0 | 9.0 | 0.00 | 0.00 | 0.00 | 54 | 1010.1 |
| 20260502194557 | 50 | 185 | 0.0 | 6.0 | 0.00 | 0.00 | 0.00 | 52 | 1010.0 |
| 20260502193052 | 51 | 192 | 1.0 | 9.0 | 0.00 | 0.00 | 0.00 | 49 | 1010.0 |
| 20260502191551 | 51 | 178 | 2.0 | 7.0 | 0.00 | 0.00 | 0.00 | 48 | 1010.0 |
| 20260502190051 | 51 | 269 | 0.0 | 8.0 | 0.00 | 0.00 | 0.00 | 49 | 1010.1 |
| 20260502184549 | 50 | 190 | 2.0 | 8.0 | 0.00 | 0.00 | 0.00 | 49 | 1010.0 |
| 20260502183053 | 51 | 216 | 2.0 | 9.0 | 0.00 | 0.00 | 0.00 | 46 | 1010.1 |
| 20260502181550 | 51 | 192 | 0.0 | 7.0 | 0.00 | 0.00 | 0.00 | 43 | 1010.0 |
| 20260502163045 | 53 | 180 | 1.0 | 6.0 | 0.00 | 0.00 | 0.00 | 39 | 1010.0 |
| 20260502161550 | 52 | 159 | 0.0 | 9.0 | 0.00 | 0.00 | 0.00 | 39 | 1010.4 |
| 20260502151541 | 53 | 239 | 0.0 | 6.0 | 0.00 | 0.01 | 0.00 | 42 | 1010.9 |
| 20260502123012 | 41 | 279 | 1.0 | 6.0 | 0.00 | 0.07 | 0.00 | 70 | 1011.1 |
| 20260502121506 | 40 | 274 | 0.0 | 5.0 | 0.00 | 0.07 | 0.00 | 72 | 1011.2 |
| 20260502114504 | 38 | 275 | 0.0 | 0.0 | 0.00 | 0.11 | 0.00 | 76 | 1010.9 |
| 20260502113003 | 37 | 227 | 0.0 | 5.0 | 0.00 | 0.11 | 0.00 | 78 | 1011.0 |
| 20260502111501 | 36 | 223 | 0.0 | 0.0 | 0.00 | 0.11 | 0.00 | 79 | 1010.9 |
| 20260502110059 | 35 | 244 | 0.0 | 0.0 | 0.00 | 0.14 | 0.00 | 81 | 1010.7 |
| 20260502104557 | 35 | 240 | 0.0 | 4.0 | 0.00 | 0.14 | 0.00 | 82 | 1010.6 |
| 20260502103056 | 34 | 214 | 0.0 | 0.0 | 0.00 | 0.14 | 0.00 | 82 | 1010.5 |
| 20260502101615 | 34 | 254 | 0.0 | 0.0 | 0.00 | 0.14 | 0.00 | 83 | 1010.4 |
| 20260502100109 | 34 | 254 | 0.0 | 0.0 | 0.00 | 0.17 | 0.00 | 83 | 1010.3 |
| 20260502071531 | 38 | 247 | 0.0 | 0.0 | 0.00 | 0.22 | 0.00 | 80 | 1008.7 |
| 20260502070034 | 38 | 235 | 0.0 | 0.0 | 0.00 | 0.23 | 0.00 | 79 | 1008.7 |
| 20260502064541 | 38 | 252 | 0.0 | 0.0 | 0.00 | 0.23 | 0.00 | 79 | 1008.4 |
| 20260502063027 | 38 | 262 | 0.0 | 0.0 | 0.00 | 0.23 | 0.00 | 78 | 1008.3 |
| 20260502061527 | 38 | 262 | 0.0 | 0.0 | 0.00 | 0.23 | 0.00 | 78 | 1008.1 |
| 20260502060033 | 38 | 262 | 0.0 | 0.0 | 0.00 | 0.28 | 0.00 | 78 | 1008.0 |